Regional Weather Roundup
Issued by NWS

Home | Current Version | Previous Version | Text Only | Print | Product List | Glossary On
Versions: 1 2 3 4 5 6 7 8 9 10 11 12 13 14 15 16 17 18 19 20 21 22 23 24 25 26 27 28 29 30 31 32 33 34 35 36 37 38 39 40 41 42 43 44 45 46 47 48 49 50
000
ASUS44 KFWD 241015
RWRTX
NORTH TEXAS HOURLY WEATHER ROUNDUP
NATIONAL WEATHER SERVICE FORT WORTH TX
500 AM CDT SUN SEP 24 2017

NOTE: "FAIR" INDICATES FEW OR NO CLOUDS BELOW 12,000 FEET WITH NO
SIGNIFICANT WEATHER AND/OR OBSTRUCTIONS TO VISIBILITY.

TXZ118-119-241100-
DALLAS/FORT WORTH METROPLEX

CITY           SKY/WX    TMP DP  RH WIND       PRES   REMARKS
DFW AIRPORT    PTCLDY    76  69  79 S7        29.88S
DALLAS LOVE    PTCLDY    77  68  73 S9        29.89F
FTW MEACHAM    CLEAR     76  69  79 SE10      29.88S
DAL-EXECUTIVE  CLEAR     75  68  78 S5        29.89F
FTW-ALLIANCE   CLEAR     74  68  81 S7        29.88F
FTW-NAS-JRB    CLEAR     77  68  73 SE9       29.89S
FTW-SPINKS     CLEAR     72  67  82 SE5       29.90S
ARLINGTON      PTCLDY    74  69  85 SE6       29.89F
GRAND PRAIRIE  PTCLDY    75  67  74 SE5       29.91S
ADDISON        CLEAR     75  67  77 S7        29.91F
MESQUITE       CLEAR     70  67  92 E3        29.91S
LANCASTER      CLEAR     70  65  83 CALM      29.91S
$$

TXZ091>094-102>105-117-120-121-131>134-241100-
NORTH CENTRAL TEXAS

CITY           SKY/WX    TMP DP  RH WIND       PRES   REMARKS
SHRMAN/DENISON CLEAR     74  67  80 E7        29.92R
GAINESVILLE    CLEAR     70  66  88 SE5       29.91F
BOWIE          CLEAR     69  65  88 SE3       29.90R
BRIDGEPORT     CLOUDY    70  65  84 CALM      29.90S
DECATUR        CLEAR     74  67  79 SE7       29.89S
DENTON         PTCLDY    73  68  84 SE7       29.88F
MCKINNEY       CLEAR     72  70  93 S7        29.90S
BONHAM         CLEAR     69  67  93 CALM      29.92R
GREENVILLE     PTCLDY    72  70  94 CALM      29.92R
ROCKWALL       CLEAR     73  69  89 S3        29.91S
TERRELL        PTCLDY    72  68  87 CALM      29.91S
WAXAHACHIE     CLEAR     71  67  88 CALM      29.92S
CLEBURNE       CLOUDY    72  70  94 SE8       29.91S
GRANBURY       PTCLDY    74  67  80 SE5       29.89S
$$

TXZ083>090-098>101-113>116-127>130-139>142-154-155-241100-
WESTERN NORTH TEXAS

CITY           SKY/WX    TMP DP  RH WIND       PRES   REMARKS
WICHITA FALLS  CLOUDY    69  63  81 SE8       29.87S
WF-KICKAPOO    PTCLDY    69  65  85 SE6       29.90R
VERNON         CLOUDY    72  60  65 SE7       29.87F
ABILENE        CLOUDY    72  67  84 SE6G20    29.88S
ABILENE-DYESS  CLOUDY    73  66  78 S16       29.86S
GRAHAM         MOCLDY    73  66  79 SE3       29.87R
BRECKENRIDGE   PTCLDY    74  65  73 S7        29.88S
CISCO          CLEAR     72  68  88 S12       29.90S
EASTLAND       CLEAR     70  66  87 S5        29.90R
RANGER         CLEAR     71  67  87 S7        29.90S
MINERAL WELLS  MOCLDY    70  66  87 SE5       29.87S
STEPHENVILLE   CLOUDY    71  66  85 S3        29.92R
COMANCHE       CLEAR     70  70 100 S6        29.90S
COLEMAN        CLEAR     72  65  80 SE8       29.89S
$$

TXZ143>147-156>162-174-175-241100-
CENTRAL TEXAS

CITY           SKY/WX    TMP DP  RH WIND       PRES   REMARKS
WACO           CLEAR     73  69  87 SE8       29.89S
WACO-MCGREGOR  CLEAR     71  68  90 SE7       29.89F
HILLSBORO      PTCLDY    74  69  83 SE8       29.90F
CORSICANA      CLEAR     72  70  93 S5        29.91S
MEXIA          CLEAR     70  68  95 SE3       29.90S
HEARNE         CLEAR    N/A N/A N/A CALM      29.90F
CAMERON        CLEAR     70  69  96 CALM      29.89S FOG
TEMPLE         PTCLDY    72  70  94 SE6       29.89F
KILLEEN        PTCLDY    72  70  94 S8        29.89R
FORT HOOD      CLOUDY    72  70  94 S10       29.86S
GATESVILLE     PTCLDY    73  70  88 S7        29.91R
HAMILTON       MOCLDY    71  71 100 S6        29.91R
LAMPASAS       PTCLDY    72  70  95 S5        29.89R
$$

TXZ095>097-106>112-122>126-135>138-148>153-164>167-241100-
EAST TEXAS

CITY           SKY/WX    TMP DP  RH WIND       PRES   REMARKS
PARIS          CLEAR     70  68  93 E6        29.93S
SULPHUR SPRNGS CLEAR     71  69  93 CALM      29.94R
MOUNT PLEASANT CLEAR     69  69  98 CALM      29.94S
GILMER         PTCLDY    69  68  97 CALM      29.92F
MINEOLA        CLEAR     70  68  94 SE3       29.91S FOG
TYLER          CLEAR     72  71  97 SE5       29.91S
LONGVIEW       CLEAR     71  70  96 E3        29.91S
MARSHALL       CLEAR     67  65  93 MISG      29.94S
ATHENS         CLEAR     68  68 100 CALM      29.90S
PALESTINE      CLEAR     73  72  96 CALM      29.92S
JACKSONVILLE   CLEAR     72  71  97 S5        29.94S
HENDERSON      CLEAR     69  69  99 CALM      29.93S FOG
CENTER         SUNNY     72  71  95 CALM      29.94R
NACOGDOCHES    CLEAR     70  68  94 CALM      29.92S FOG
LUFKIN         CLEAR     71  70  96 CALM      29.91S FOG
$$

SUPPLEMENTAL OBSERVATIONS (NWS FORT WORTH AREA)

CITY           SKY/WX    TMP DP  RH WIND       PRES   REMARKS
DENISON DAM      N/A     72  68  88 E5          N/A
CADDO GRASSLND   N/A     72  66  83 S3          N/A
PAT MAYSE LAKE   N/A     73  70  88 E5          N/A
GREENVILLE       N/A     72  66  83 SE3         N/A
CEDAR HILL       N/A     75  66  73 S8          N/A
LBJ GRASSLAND    N/A     73  64  73 SE8         N/A
POSSUM KINGDOM   N/A     73  66  78 SE7G16      N/A
GRANBURY         N/A     73  66  78 SE7         N/A
COMANCHE         N/A     70  66  88 SE7         N/A
MCGREGOR         N/A     72  68  88 S9          N/A
TEMPLE           N/A     70  66  88 E3          N/A
LAKE LIMESTONE   N/A     70  66  88 E2          N/A
ATHENS           N/A     73  70  88 S2          N/A
$$

SUPPLEMENTAL OBSERVATIONS (NWS NORMAN AREA)

CITY           SKY/WX    TMP DP  RH WIND       PRES   REMARKS
GOODLETT         N/A     73  62  66 SE10      29.86S
ODELL            N/A     72  64  75 SE8       29.88S
CROWELL          N/A     74  64  70 SE10      29.87F
KNOX CITY        N/A     75  62  64 SE13      29.86S
SEYMOUR          N/A     72  62  71 SE10      29.87S
MILLERS CREEK    N/A     73  64  73 SE8         N/A
$$

SUPPLEMENTAL OBSERVATIONS (NWS SAN ANGELO AREA)

CITY           SKY/WX    TMP DP  RH WIND       PRES   REMARKS
HASKELL          N/A     74  63  67 SE10      29.87F
THROCKMORTON     N/A     72  66  81 SE6       29.89S
STAMFORD         N/A     75  66  74 S13       29.88S
CLYDE            N/A     71  66  85 SE13      29.90S
HAMBY            N/A     73  64  73 S10         N/A
IVIE RESERVOIR   N/A     72  66  83 SE10        N/A
COLORADO BEND    N/A     73  68  83 S8G17       N/A
$$

SUPPLEMENTAL OBSERVATIONS (NWS SHREVEPORT AREA)

CITY           SKY/WX    TMP DP  RH WIND       PRES   REMARKS
CLARKSVILLE      N/A     72  66  83 SE3         N/A
TEXARKANA        N/A     66  64  94 CALM        N/A
LINDEN           N/A     70  66  88 CALM        N/A
CADDO LAKE       N/A     64  63  94 CALM        N/A
GILMER           N/A     70  68  94 CALM        N/A
HENDERSON        N/A     70  68  94 CALM        N/A
LUFKIN           N/A     72  70  94 MISG        N/A
N SABINE NF      N/A     70  68  94 MISG        N/A
S SABINE NF      N/A     70  68  94 CALM        N/A
$$

SUPPLEMENTAL OBSERVATIONS ARE A COLLECTION OF AUTOMATED INSTRUMENTS
THAT ARE MAINTAINED BY A VARIETY OF FEDERAL AND STATE AGENCIES.
CERTAIN ELEMENTS...SUCH AS HUMIDITY VALUES AND SUSTAINED WIND
SPEEDS...MAY BE APPROXIMATED.





USA.gov is the U.S. government's official web portal to all federal, state and local government web resources and services.